Regional Weather Roundup
Issued by NWS

Home | Current Version | Previous Version | Graphics & Text | Print | Product List | Glossary On
Versions: 1 2 3 4 5 6 7 8 9 10 11 12 13 14 15 16 17 18 19 20 21 22 23 24 25 26 27 28 29 30 31 32 33 34 35 36 37 38 39 40 41 42 43 44 45 46 47 48 49 50
000
ASUS43 KDTX 300601
RWRMI
MICHIGAN HOURLY REGIONAL WEATHER ROUNDUP
NATIONAL WEATHER SERVICE DETROIT/PONTIAC MI
200 AM EDT MON MAY 30 2016

NOTE: "FAIR" INDICATES FEW OR NO CLOUDS BELOW 12,000 FEET WITH NO
SIGNIFICANT WEATHER AND/OR OBSTRUCTION TO VISIBILITY.

MIZ047>049-052>055-059>063-066>070-074>076-081>083-300700-
SOUTHEAST LOWER MICHIGAN

CITY           SKY/WX    TMP DP  RH WIND       PRES   REMARKS
ADRIAN         CLEAR     62  56  80 CALM      30.00F
6HR MIN TEMP:  61; 6HR MAX TEMP:  82;

ALMA           CLEAR     62  58  87 SW6       29.96S
ANN ARBOR      CLEAR     55  54  96 W3        29.98F
CARO           CLEAR     60  56  87 SW5       29.94S
DETROIT CITY   CLEAR     69  55  60 W6        29.96F
6HR MIN TEMP:  69; 6HR MAX TEMP:  82;

DETROIT        CLEAR     67  56  67 W3        29.98F
6HR MIN TEMP:  67; 6HR MAX TEMP:  84;

FLINT          CLEAR     66  56  70 SW6       29.96F
6HR MIN TEMP:  65; 6HR MAX TEMP:  82;

GROSSE ILE     CLEAR     64  59  82 S3        29.97S
HILLSDALE      CLEAR     61  56  83 CALM      30.01S
6HR MIN TEMP:  61; 6HR MAX TEMP:  79;

HOWELL         CLEAR     63  56  79 SW5       29.98S

CITY           SKY/WX    TMP DP  RH WIND       PRES   REMARKS
JACKSON        CLEAR     60  57  89 SW5       30.00S
6HR MIN TEMP:  60; 6HR MAX TEMP:  77;

LAMBERTVILLE   CLEAR     63  57  81 CALM      30.00S
6HR MIN TEMP:  62; 6HR MAX TEMP:  84;

LANSING        CLEAR     64  57  78 SW7       29.98S
6HR MIN TEMP:  63; 6HR MAX TEMP:  76;

LAPEER         FAIR      64  56  74 SW3       29.96F
6HR MIN TEMP:  63; 6HR MAX TEMP:  80;

MASON          CLEAR     64  56  77 CALM      29.98F
MONROE         PTCLDY    62  59  89 CALM      29.98F
6HR MIN TEMP:  62; 6HR MAX TEMP:  82;

PONTIAC        CLEAR     65  56  72 W6        29.96F
6HR MIN TEMP:  65; 6HR MAX TEMP:  82;

PORT HOPE        N/A     66  59  78 SW3       29.90S
6HR MIN TEMP:  66; 6HR MAX TEMP:  79;

PORT HURON     CLEAR     57  57 100 CALM      29.95S FOG
TRI CITIES     CLEAR     66  58  75 SW7       29.94S
6HR MIN TEMP:  66; 6HR MAX TEMP:  77;

MIDLAND        FAIR      64  57  80 SW3       29.92F
6HR MIN TEMP:  63; 6HR MAX TEMP:  76;

TROY           CLEAR     69  56  62 W3        29.98F
SAGINAW HB     CLEAR     64  55  72 SW7       29.94S
$$
MIZ043>046-050>051-056>058-064>065-071>073-077>080-300700-
SOUTHWEST LOWER MICHIGAN

CITY           SKY/WX    TMP DP  RH WIND       PRES   REMARKS
BATTLE CREEK   CLEAR     62  57  83 W7        30.00S
6HR MIN TEMP:  61; 6HR MAX TEMP:  74;

BENTON HARBOR  PTCLDY    62  57  83 CALM      29.99S
6HR MIN TEMP:  60; 6HR MAX TEMP:  76;

BIG RAPIDS     PTCLDY    63  59  87 W3        29.95S
6HR MIN TEMP:  61; 6HR MAX TEMP:  72;

COLDWATER      CLEAR     60  55  81 CALM      30.00F
6HR MIN TEMP:  59; 6HR MAX TEMP:  77;

FREMONT        FAIR      57  57 100 CALM      29.96S
HOLLAND        CLEAR     65  56  72 W6        29.98S
6HR MIN TEMP:  63; 6HR MAX TEMP:  74;

GRAND RAPIDS   CLEAR     65  57  75 SW6       29.98R
6HR MIN TEMP:  65; 6HR MAX TEMP:  76;

IONIA          FAIR      63  56  77 SW7       29.97S
6HR MIN TEMP:  63; 6HR MAX TEMP:  74;

KALAMAZOO      CLEAR     64  56  75 SW5       29.99F
6HR MIN TEMP:  64; 6HR MAX TEMP:  76;

LUDINGTON      CLEAR     60  56  84 W3        29.95S
6HR MIN TEMP:  55; 6HR MAX TEMP:  64;

MARSHALL       CLEAR     62  56  81 CALM      29.99S
6HR MIN TEMP:  60; 6HR MAX TEMP:  75;

MOUNT PLEASANT CLEAR     63  58  82 SW5       29.94S
6HR MIN TEMP:  63; 6HR MAX TEMP:  73;

MUSKEGON       CLEAR     58  52  80 SW3       29.96F
6HR MIN TEMP:  57; 6HR MAX TEMP:  70;

SOUTH HAVEN    CLEAR     67  56  69 W5        29.99S
$$
MIZ016>042-300700-
NORTHERN LOWER MICHIGAN

CITY           SKY/WX    TMP DP  RH WIND       PRES   REMARKS
ALPENA         CLEAR     65  57  75 SW6       29.87S
6HR MIN TEMP:  65; 6HR MAX TEMP:  73; 6HR PCP: TRACE;

BEAVER ISLAND  MOCLDY    55  54  97 W7        29.89S
6HR MIN TEMP:  54; 6HR MAX TEMP:  62;

BELLAIRE       CLEAR     64  56  77 SW3       29.92S
6HR MIN TEMP:  64; 6HR MAX TEMP:  72;

CADILLAC       PTCLDY    61  57  86 CALM      29.95R
CHARLEVOIX     MOCLDY    60  55  85 W12G18    29.93S
FRANKFORT      PTCLDY    55  54  97 N3        29.95S
GAYLORD        PTCLDY    63  58  83 W9        29.91S
6HR MIN TEMP:  63; 6HR MAX TEMP:  71; 6HR PCP: TRACE;

GRAYLING       MOCLDY    64  58  82 W6        29.93S
6HR MIN TEMP:  64; 6HR MAX TEMP:  71;

HARBOR SPRINGS CLOUDY    58  56  91 CALM      29.89S
HOUGHTON LAKE  CLOUDY    65  59  81 W13G20    29.93S
6HR MIN TEMP:  64; 6HR MAX TEMP:  71; 6HR PCP:  0.01;

OSCODA         CLEAR     67  57  72 W7        29.88F
6HR MIN TEMP:  66; 6HR MAX TEMP:  79;

PELLSTON       CLOUDY    61  56  83 W7        29.89S
6HR MIN TEMP:  60; 6HR MAX TEMP:  71; 6HR PCP: TRACE;

ROGERS CITY    MOCLDY    64  57  76 W7        29.88R
TRAVERSE CITY  CLEAR     64  59  83 SW5       29.91S
6HR MIN TEMP:  64; 6HR MAX TEMP:  73;

$$
MIZ007>008-015-300700-
EASTERN UPPER MICHIGAN

CITY           SKY/WX    TMP DP  RH WIND       PRES   REMARKS
KINROSS          N/A     57  57 100 SW6       29.85F
6HR MIN TEMP:  57; 6HR MAX TEMP:  68;

MACKINAC ISLAN CLOUDY    56  56 100 SW7       29.87F
6HR MIN TEMP:  55; 6HR MAX TEMP:  62;

NEWBERRY       CLOUDY    60  58  92 W10       29.86S
6HR MIN TEMP:  59; 6HR MAX TEMP:  64; 6HR PCP:  0.01;

S. S. MARIE    CLOUDY    59  57  93 SW6       29.83F
6HR MIN TEMP:  59; 6HR MAX TEMP:  68; 6HR PCP:  0.05;

MUNISING         N/A     61  55  81 W6        29.86F
6HR MIN TEMP:  54; 6HR MAX TEMP:  64;

$$
MIZ004>006-011>014-085-300700-
CENTRAL UPPER MICHIGAN

CITY           SKY/WX    TMP DP  RH WIND       PRES   REMARKS
MANISTIQUE     PTCLDY    59  58  97 W5        29.88R
6HR MIN TEMP:  55; 6HR MAX TEMP:  62;

ESCANABA       CLEAR     57  55  94 SW3       29.90S
6HR MIN TEMP:  55; 6HR MAX TEMP:  66;

MENOMINEE      CLEAR     59  55  88 CALM      29.95R
6HR MIN TEMP:  57; 6HR MAX TEMP:  73;

SAWYER-GWINN   CLEAR     55  53  92 SW5       29.90S
6HR MIN TEMP:  55; 6HR MAX TEMP:  65; 6HR PCP:  0.04;

$$
MIZ001>003-009>011-084-300700-
WESTERN UPPER MICHIGAN

CITY           SKY/WX    TMP DP  RH WIND       PRES   REMARKS
IRON MOUNTAIN  CLEAR     59  55  87 W5        29.92R
6HR MIN TEMP:  59; 6HR MAX TEMP:  66;

HOUGHTON       PTCLDY    57  50  77 W12       29.86S
6HR MIN TEMP:  56; 6HR MAX TEMP:  60;

COPPER HARBOR    N/A     58  53  84 NW10      29.83S
6HR MIN TEMP:  58; 6HR MAX TEMP:  64; 6HR PCP:  0.02;

IRONWOOD       CLEAR     54  52  94 W5        29.91S
6HR MIN TEMP:  52; 6HR MAX TEMP:  64;

$$

ABBREVIATIONS USED IN REMARKS
   TC - TEMPERATURE IN CELSIUS
  WCI - WIND CHILL INDEX
   HX - HEAT INDEX
  VSB - VISIBILITY




USA.gov is the U.S. government's official web portal to all federal, state and local government web resources and services.